This demonstration page uses our WeatherBlox Daily Observations layout. Learn more.

Left ArrowRight Arrow

38.20091, -84.87328

Hourly Observations for July 12, 2015

Temp ( °F °C ) Dew Point ( °F °C ) Humidity (%) Winds ( mph kmh ) Pressure ( in mb ) Visibility ( mi km ) Precip ( " mm )
12:53 am 00:53 Clear 72 22.2 65 18.3 79 79 ESE 3 6 30.06 1018 10 16 0.00 0.00
1:53 am 01:53 Clear 72 22.2 65 18.3 79 79 SE 6 9 30.05 1018 10 16 0.00 0.00
2:53 am 02:53 Clear 71 21.7 65 18.3 81 81 Calm 30.04 1017 10 16 0.00 0.00
3:53 am 03:53 Clear 71 21.7 66 18.9 84 84 SSE 6 9 30.02 1017 10 16 0.00 0.00
4:53 am 04:53 Clear 71 21.7 66 18.9 84 84 SSE 6 9 30.02 1017 10 16 0.00 0.00
5:53 am 05:53 Mostly Cloudy 71 21.7 66 18.9 84 84 S 5 7 30.02 1017 10 16 0.00 0.00
6:05 am 06:05 Cloudy with Thunderstorms 71 21.7 66 18.9 84 84 Calm 30.03 1017 7 11 0.01 0.25
6:20 am 06:20 Cloudy with Nearby Thunderstorms 71 21.7 67 19.4 87 87 S 12 19 30.00 1016 4 6 0.07 1.78
6:30 am 06:30 Cloudy with Thunderstorms 70 21.1 67 19.4 90 90 SE 7 11 30.00 1016 6 10 0.09 2.29
6:45 am 06:45 Mostly Cloudy with Nearby Thunderstorms 70 21.1 66 18.9 87 87 SSE 5 7 30.00 1016 8 13 0.09 2.29
6:53 am 06:53 Mostly Cloudy with Nearby Thunderstorms 70 21.1 66 18.9 87 87 SSE 6 9 30.00 1016 10 16 0.09 2.29
7:00 am 07:00 Mostly Cloudy with Thunderstorms 70 21.1 66 18.9 87 87 VRB 5 7 30.00 1016 10 16 0.00 0.03
7:21 am 07:21 Mostly Cloudy with Strong Thunderstorms 71 21.7 67 19.4 87 87 N 17 28 30.03 1017 2 3 0.22 5.59
7:24 am 07:24 Mostly Cloudy with Strong Thunderstorms 70 21.1 67 19.4 90 90 NNW 20 31 30.03 1017 1 2 0.33 8.38
7:26 am 07:26 Cloudy with Strong Thunderstorms 70 21.1 67 19.4 90 90 NNW 17 28 30.03 1017 1 1 0.48 12.19
7:41 am 07:41 Cloudy with Strong Thunderstorms 69 20.6 67 19.4 93 93 VRB 5 7 30.03 1017 1 2 0.86 21.84
7:44 am 07:44 Mostly Cloudy with Thunderstorms 69 20.6 68 20 96 96 SSW 12 19 30.03 1017 3 5 0.86 21.84
7:53 am 07:53 Mostly Cloudy with Thunderstorms 69 20.6 67 19.4 93 93 SW 10 17 30.04 1017 6 10 0.87 22.10
8:05 am 08:05 Mostly Cloudy with Nearby Thunderstorms 69 20.6 67 19.4 93 93 WSW 5 7 30.03 1017 5 8 0.03 0.76
8:41 am 08:41 Mostly Cloudy with Light Rain 69 20.6 67 19.4 93 93 S 8 13 30.03 1017 7 11 0.10 2.54
8:51 am 08:51 Mostly Cloudy with Nearby Thunderstorms 70 21 66 19 88 88 SSW 7 11 30.03 1017 9 14 0.11 2.79
8:53 am 08:53 Mostly Cloudy with Nearby Thunderstorms 69 20.6 67 19.4 93 93 SSW 7 11 30.03 1017 9 14 0.11 2.79
9:36 am 09:36 Mostly Cloudy with Light Rain 69 20.6 67 19.4 93 93 S 6 9 30.00 1016 9 14 0.02 0.51
9:53 am 09:53 Cloudy 70 21.1 68 20 93 93 S 7 11 30.01 1016 10 16 0.02 0.51
10:53 am 10:53 Mostly Cloudy 74 23.3 70 21.1 88 88 SW 8 13 30.00 1016 10 16 0.00 0.00
11:53 am 11:53 Mostly Cloudy 81 27.2 72 22.2 74 74 SW 12 19 29.99 1016 10 16 0.00 0.00
12:53 pm 12:53 Sunny 82 27.8 70 21.1 67 67 SSW 13 20 29.97 1015 10 16 0.00 0.00
1:38 pm 13:38 Mostly Cloudy 83 28.3 72 22.2 70 70 WSW 8 13 29.97 1015 9 14 0.00 0.00
1:53 pm 13:53 Mostly Cloudy 82 27.8 71 21.7 69 69 SW 14 22 29.96 1015 10 16 0.00 0.00
2:06 pm 14:06 Partly Cloudy 84 28.9 71 21.7 65 65 W 10 17 29.94 1014 10 16 0.00 0.00
2:53 pm 14:53 Mostly Cloudy 83 28.3 72 22.2 70 70 W 7 11 29.94 1014 10 16 0.00 0.00
3:02 pm 15:02 Mostly Cloudy 84 28.9 72 22.2 67 67 W 5 7 29.94 1014 10 16 0.00 0.00
3:53 pm 15:53 Partly Cloudy 86 30 73 22.8 65 65 VRB 7 11 29.92 1013 10 16 0.00 0.00
4:13 pm 16:13 Mostly Cloudy 87 30.6 74 23.3 65 65 VRB 3 6 29.88 1012 10 16 0.00 0.00
4:21 pm 16:21 Partly Cloudy 86 30 73 22.8 65 65 VRB 7 11 29.91 1013 10 16 0.00 0.00
4:53 pm 16:53 Partly Cloudy 85 29.4 74 23.3 70 70 VRB 7 11 29.90 1012 10 16 0.00 0.00
5:32 pm 17:32 Mostly Cloudy with Nearby Thunderstorms 86 30 75 23.9 70 70 SSW 9 15 29.85 1011 10 16 0.00 0.00
5:41 pm 17:41 Mostly Cloudy with Thunderstorms 85 29.4 75 23.9 72 72 SW 8 13 29.88 1012 10 16 0.00 0.00
5:53 pm 17:53 Mostly Cloudy with Nearby Thunderstorms 87 30.6 74 23.3 65 65 W 9 15 29.89 1012 10 16 0.00 0.00
6:03 pm 18:03 Mostly Cloudy with Thunderstorms 87 30.6 75 23.9 67 67 W 8 13 29.85 1011 10 16 0.00 0.00
6:18 pm 18:18 Mostly Cloudy with Nearby Thunderstorms 84 28.9 73 22.8 70 70 Calm 29.88 1012 10 16 0.00 0.00
6:53 pm 18:53 Partly Cloudy 84 28.9 73 22.8 70 70 NW 3 6 29.90 1013 10 16 0.00 0.00
7:53 pm 19:53 Mostly Cloudy 79 26.1 73 22.8 82 82 SE 7 11 29.90 1013 10 16 0.00 0.00
8:13 pm 20:13 Mostly Cloudy with Nearby Thunderstorms 78 25.6 69 20.6 74 74 SSE 7 11 29.91 1013 10 16 0.00 0.00
8:21 pm 20:21 Cloudy with Thunderstorms 78 25.6 69 20.6 74 74 Calm 29.91 1013 10 16 0.00 0.00
8:28 pm 20:28 Cloudy with Thunderstorms 77 25 70 21.1 79 79 SSE 12 19 29.91 1013 2 3 0.05 1.27
8:35 pm 20:35 Mostly Cloudy with Light Rain 76 24.4 70 21.1 82 82 ESE 5 7 29.91 1013 3 4 0.05 1.27
8:42 pm 20:42 Mostly Cloudy 76 24.4 70 21.1 82 82 S 3 6 29.91 1013 10 16 0.05 1.27
8:53 pm 20:53 Partly Cloudy 75 23.9 70 21.1 84 84 SSE 5 7 29.91 1013 10 16 0.05 1.27
9:15 pm 21:15 Mostly Clear with Nearby Thunderstorms 74 23.3 71 21.7 91 91 WSW 3 6 29.91 1013 10 16 0.00 0.00
9:44 pm 21:44 Mostly Cloudy 74 23.3 71 21.7 91 91 Calm 29.91 1013 10 16 0.00 0.00
9:53 pm 21:53 Mostly Cloudy 74 23.3 71 21.7 91 91 SSW 3 6 29.92 1013 10 16 0.00 0.00
10:53 pm 22:53 Mostly Clear 73 22.8 70 21.1 90 90 WSW 5 7 29.92 1013 10 16 0.00 0.00
11:53 pm 23:53 Clear 74 23.3 71 21.7 91 91 Calm 29.91 1013 10 16 0.00 0.00

Powered by AerisWeather